Lid_Strength_Index
-1 -1 -1 -1 -1 -1 -2 -2 -2 -2 -1 -1 -1 -1 -1 -1 -1 1 4 1 -0 -2 -1 1 2 3 3 5 5 6 11 13 12 11 10 9 9 8 7 7 6 5 6 4 3
-0 -1 -1 -1 -1 -1 -2 -2 -2 -1 -2 -1 -1 -0 -1 -1 1 3 -1 -3 -3 -2 2 4 5 4 6 6 6 8 12 11 8 9 10 8 9 8 9 9 8 7 4 3 3
0 0 0 -1 -1 -1 -1 -2 -1 -1 -1 -1 -1 -1 -1 -0 5 6 -0 -2 -2 -2 1 2 3 5 8 7 7 8 12 9 8 8 7 8 8 7 10 10 8 7 6 4 5
2 1 0 0 -0 -1 -1 -1 -1 -1 -1 -1 -1 -1 -0 2 15 5 -2 -2 -2 0 1 3 5 8 9 9 7 10 8 8 7 6 7 8 7 8 9 10 7 6 4 4 5
2 2 2 2 1 1 -0 -1 -1 -1 -1 -1 -1 -1 2 7 7 3 -1 -1 -0 1 3 4 6 7 9 8 8 9 8 7 6 6 7 6 8 8 8 6 6 5 4 5 4
2 2 2 2 2 2 1 0 -1 -1 -1 -2 -1 -1 4 11 4 4 0 0 1 2 3 4 5 5 8 8 9 8 7 7 7 7 7 8 8 8 7 5 6 5 5 5 4
1 1 1 2 2 2 2 1 -0 -0 -1 -2 -2 1 5 8 5 5 4 1 1 2 4 3 3 6 6 9 6 7 10 8 8 7 8 7 10 9 6 6 6 6 6 5 4
2 1 1 1 1 2 1 1 0 0 -0 -2 -2 2 7 2 2 4 5 4 1 1 2 2 2 5 7 6 8 10 10 14 9 8 7 8 13 8 6 7 7 6 7 6 6
1 1 1 1 1 1 1 1 0 0 -0 0 2 4 9 1 4 4 4 6 2 2 2 2 3 7 8 11 13 13 16 14 11 8 9 9 13 8 6 6 8 8 7 7 7
0 0 1 1 1 1 0 0 -0 0 1 1 2 7 7 8 4 4 5 5 4 4 5 6 7 10 10 12 17 16 15 13 13 10 9 10 10 8 8 7 7 7 7 8 7
1 0 0 0 1 0 1 2 5 6 4 7 7 7 8 5 5 5 5 6 4 6 11 8 11 13 11 10 10 11 13 13 12 9 11 12 11 9 8 8 8 8 8 8 7
1 1 0 0 0 -0 1 5 5 4 8 4 4 4 4 5 8 7 5 8 8 10 9 11 13 9 9 9 11 12 13 13 11 10 10 11 12 10 10 9 9 8 8 8 7
0 1 1 0 0 1 4 4 1 2 8 7 5 5 5 4 8 8 7 8 9 10 11 12 11 8 10 11 13 12 13 13 13 11 10 12 12 11 10 10 8 8 8 7 7
-1 -0 0 0 3 4 5 2 1 1 12 11 8 6 5 4 8 5 5 6 9 11 10 11 8 10 11 12 11 15 10 11 12 14 16 12 17 14 13 11 10 9 9 8 8
-2 -2 -1 -1 4 5 4 2 1 3 20 10 9 3 4 8 7 7 5 6 10 10 10 12 11 11 12 12 10 12 9 11 12 14 15 14 17 16 12 13 11 10 9 8 7
-1 -1 -2 0 1 3 2 1 2 13 20 12 8 9 9 8 8 6 6 4 6 10 9 10 9 9 10 9 9 9 11 12 12 13 18 14 16 16 14 13 11 10 9 8 7
-1 -1 -1 -0 4 1 1 4 14 18 11 13 12 10 10 11 10 9 10 11 13 15 15 12 11 10 8 12 10 10 13 21 20 19 19 15 16 15 13 11 10 9 9 8 8
-1 -1 -1 0 0 -0 2 9 17 14 13 10 10 10 13 10 11 10 11 13 10 11 14 16 17 11 9 11 13 12 13 17 23 21 19 15 18 14 10 9 8 8 7 8 8
-1 1 2 1 -0 1 7 15 15 12 11 12 11 13 13 11 11 11 12 13 11 10 14 15 15 10 9 9 9 13 15 11 16 18 20 17 14 11 10 10 9 9 9 8 9
2 3 3 0 -0 3 10 13 12 9 9 10 14 12 15 13 13 13 13 10 11 9 8 12 16 11 9 9 9 11 10 16 15 21 23 18 18 15 13 11 9 10 10 10 10
3 7 2 -0 1 7 13 12 11 8 8 11 12 13 12 13 12 13 13 11 9 10 8 10 13 14 10 13 13 13 14 14 14 16 20 21 17 12 11 10 10 10 10 11 10
5 10 2 1 9 9 12 11 7 9 7 9 10 10 12 11 13 13 13 11 7 8 12 9 12 16 14 9 8 10 12 12 16 18 16 17 16 10 10 10 9 9 10 9 10
7 7 2 3 12 12 12 10 9 9 9 10 11 9 10 11 14 12 11 8 8 9 11 10 14 18 16 13 11 12 11 11 12 13 17 19 16 9 9 10 9 9 10 9 9
6 11 7 6 7 11 13 11 11 8 9 9 10 9 11 12 10 12 12 9 8 8 7 8 13 15 17 14 12 14 12 12 12 16 15 15 13 13 12 11 10 9 10 9 9
6 9 8 11 10 9 9 10 11 12 9 8 11 10 12 14 13 13 11 10 9 8 8 9 14 13 13 12 11 12 12 12 14 13 15 13 13 10 10 10 9 10 9 9 9
8 8 7 12 8 9 10 11 11 11 10 11 11 11 10 14 12 13 12 11 11 9 10 9 15 13 14 13 12 14 12 12 12 12 12 12 13 9 9 9 9 9 9 9 9
5 5 7 8 9 10 11 10 10 9 9 8 9 10 11 10 8 8 8 9 9 10 11 12 13 15 17 14 14 17 13 13 12 11 11 14 11 9 10 9 9 9 9 9 9